Location: Ciochowice
(50.4289°N, 18.5217°E)
Time: 05:29:33
(UTC+01:00)

ISS - Pass Details

Date: 30 January 2019
Orbit: 403 x 411 km, 51.6° (Epoch: 20 February)

Event Time Altitude Azimuth Distance (km) Brightness Sun altitude
Rises 17:25:07 0° 253° (WSW) 2,329 2.6 -8.2°
Reaches altitude 10° 17:27:11 10° 253° (WSW) 1,472 0.8 -8.5°
Maximum altitude 17:30:30 86° 162° (SSE) 416 -3.8 -9.1°
Enters shadow 17:33:17 14° 76° (ENE) 1,266 -2.0 -9.5°
